Sierra Vista, AZ

7:15 PM MST on April 24, 2017 (GMT -0700)
Sierra Vista Municipal-Libby Army Air Field

Weather History for KFHU - November, 2011

Change the Weather History Date:

Friday, November 4, 2011

  Actual Average Record
Temperature  
Mean Temperature 62 °F -  
Max Temperature 75 °F 69 °F 83 °F (1988)
Min Temperature 48 °F 46 °F 34 °F (1982)
Degree Days  
Heating Degree Days 4    
Growing Degree Days 12 (Base 50)    
Moisture  
Dew Point 26 °F    
Average Humidity 29    
Maximum Humidity 55    
Minimum Humidity 11    
Precipitation  
Precipitation 0.00 in - - ()
Sea Level Pressure  
Sea Level Pressure 29.76 in    
Wind  
Wind Speed 11 mph (South)    
Max Wind Speed 37 mph    
Max Gust Speed 51 mph    
Visibility 10 miles    
Events      
Averages and records for this station are not official NWS values.
T = Trace of Precipitation, MM = Missing Value Source: NWS Daily Summary

Daily Weather History Graph

Daily Weather History Graph

Search for Another Location

Airport or City:

Trip Planner

Search our weather history database for the weather conditions in past years. The results will help you decide how hot, cold, wet, or windy it might be!

Date:

Astronomy

Nov. 04, 2011 Rise Set
Actual Time 6:39 AM MST 5:29 PM MST
Civil Twilight 6:14 AM MST 5:54 PM MST
Nautical Twilight 5:45 AM MST 6:23 PM MST
Astronomical Twilight 5:17 AM MST 6:52 PM MST
Moon 2:04 PM MST (11/4) 1:15 AM MST (11/4)
Length of Visible Light 11h 40m
Length of Day
10h 50m
Waxing Gibbous, 70% of the Moon is Illuminated
Nov 4
Waxing Gibbous
Nov 10
Full
Nov 18
Last Quarter
Nov 24
New
Dec 2
First Quarter

Hourly Weather History & Observations

Time (MST) Temp. Dew Point Humidity Pressure Visibility Wind Dir Wind Speed Gust Speed Precip Events Conditions
12:56 AM 53.1 °F 21.0 °F 29% 29.90 in 10.0 mi Calm Calm - N/A   Clear
1:56 AM 51.1 °F 21.0 °F 31% 29.89 in 10.0 mi SW 3.5 mph - N/A   Clear
2:00 AM - - N/A% - - North - - N/A   Unknown
2:04 AM - - N/A% - - North - - N/A   Unknown
2:56 AM 48.9 °F 21.0 °F 33% 29.87 in 10.0 mi Calm Calm - N/A   Clear
3:56 AM 53.1 °F 21.0 °F 29% 29.85 in 10.0 mi SSE 4.6 mph - N/A   Clear
4:56 AM 54.0 °F 21.9 °F 29% 29.85 in 10.0 mi SSE 8.1 mph - N/A   Clear
5:55 AM 51.8 °F 24.8 °F 35% 29.86 in 10.0 mi Calm Calm - N/A   Mostly Cloudy
6:55 AM 55.4 °F 26.6 °F 33% 29.86 in 10.0 mi South 8.1 mph - N/A   Mostly Cloudy
7:55 AM 62.6 °F 28.4 °F 27% 29.87 in 10.0 mi South 6.9 mph - N/A   Mostly Cloudy
8:55 AM 69.8 °F 26.6 °F 20% 29.86 in 10.0 mi SE 12.7 mph 19.6 mph N/A   Mostly Cloudy
9:55 AM 66.2 °F 21.2 °F 18% 29.84 in 10.0 mi SSE 9.2 mph - N/A   Mostly Cloudy
10:55 AM 71.6 °F 23.0 °F 16% 29.81 in 10.0 mi SSE 10.4 mph 25.3 mph N/A   Mostly Cloudy
11:55 AM 73.4 °F 17.6 °F 12% 29.78 in 10.0 mi South 10.4 mph 24.2 mph N/A   Mostly Cloudy
12:55 PM 75.2 °F 23.0 °F 14% 29.73 in 10.0 mi South 18.4 mph 28.8 mph N/A   Mostly Cloudy
1:56 PM 75.2 °F 15.8 °F 11% 29.69 in 10.0 mi SSW 15.0 mph 28.8 mph N/A   Mostly Cloudy
2:55 PM 73.4 °F 15.8 °F 11% 29.68 in 10.0 mi South 19.6 mph 38.0 mph N/A   Mostly Cloudy
3:55 PM 71.6 °F 17.6 °F 13% 29.67 in 10.0 mi South 16.1 mph 27.6 mph N/A   Scattered Clouds
4:55 PM 68.0 °F 21.2 °F 17% 29.65 in 10.0 mi SSW 25.3 mph 38.0 mph N/A   Partly Cloudy
5:55 PM 64.4 °F 26.6 °F 24% 29.65 in 10.0 mi SSW 26.5 mph 40.3 mph N/A   Partly Cloudy
6:55 PM 62.6 °F 37.4 °F 39% 29.64 in 10.0 mi SSW 33.4 mph 41.4 mph N/A   Scattered Clouds
7:55 PM 62.6 °F 39.2 °F 42% 29.62 in 10.0 mi South 35.7 mph 50.6 mph N/A   Scattered Clouds
8:55 PM 60.8 °F 41.0 °F 48% 29.60 in 10.0 mi SSW 36.8 mph 44.9 mph N/A   Scattered Clouds
9:55 PM 60.8 °F 42.8 °F 52% 29.60 in 10.0 mi SSW 31.1 mph 48.3 mph N/A   Scattered Clouds
10:55 PM 57.2 °F 41.0 °F 55% 29.78 in 10.0 mi SSW 26.5 mph 46.0 mph N/A   Mostly Cloudy
11:56 PM 57.0 °F 39.9 °F 53% 29.61 in 10.0 mi South 31.1 mph 43.7 mph N/A   Scattered Clouds